N310SB URKG-URKA

Flight info

Callsign N310SB
Flight time 0h 25m
Altitude 2500
Route /
Aircraft C310/L-SDFGR/S

Departure

Time 2026-05-06 15:05
Airport Gelendzhik Airport (URKG)

Arrival

Time 2026-05-06 15:30
Airport Anapa Vityazevo Airport (URKA)
Time Latitude Longitude Altitude Speed Heading
2026-05-06 14:57 44.59311 38.02186 137 ft 0 kts 13°
2026-05-06 15:03 44.59348 38.02199 136 ft 13 kts 12°
2026-05-06 15:03 44.59383 38.02111 136 ft 16 kts 284°
2026-05-06 15:03 44.59413 38.01978 134 ft 12 kts 296°
2026-05-06 15:03 44.59466 38.01898 139 ft 12 kts 316°
2026-05-06 15:04 44.59502 38.01781 140 ft 16 kts 242°
2026-05-06 15:04 44.59356 38.01706 132 ft 43 kts 194°
2026-05-06 15:04 44.58860 38.01537 186 ft 92 kts 191°
2026-05-06 15:04 44.58180 38.01365 512 ft 102 kts 193°
2026-05-06 15:05 44.57430 38.01090 806 ft 122 kts 193°
2026-05-06 15:05 44.56558 38.00835 1204 ft 122 kts 188°
2026-05-06 15:05 44.55768 38.00787 1560 ft 119 kts 188°
2026-05-06 15:05 44.54967 38.00367 1715 ft 122 kts 221°
2026-05-06 15:06 44.54440 37.99459 1966 ft 121 kts 245°
2026-05-06 15:06 44.54090 37.98366 2147 ft 122 kts 247°
2026-05-06 15:06 44.53839 37.97251 2328 ft 125 kts 263°
2026-05-06 15:06 44.53735 37.96022 2519 ft 124 kts 271°
2026-05-06 15:07 44.53885 37.94756 2562 ft 134 kts 282°
2026-05-06 15:07 44.54195 37.93600 2634 ft 135 kts 299°
2026-05-06 15:07 44.54886 37.92641 2495 ft 135 kts 321°
2026-05-06 15:07 44.55565 37.91858 2469 ft 123 kts 318°
2026-05-06 15:08 44.56203 37.91123 2315 ft 122 kts 325°
2026-05-06 15:08 44.56915 37.90494 2244 ft 115 kts 326°
2026-05-06 15:08 44.57608 37.89915 2025 ft 121 kts 332°
2026-05-06 15:08 44.58384 37.89558 1936 ft 116 kts 346°
2026-05-06 15:09 44.59123 37.89347 2035 ft 108 kts 344°
2026-05-06 15:09 44.59878 37.89009 2048 ft 120 kts 338°
2026-05-06 15:09 44.60693 37.88603 2066 ft 127 kts 339°
2026-05-06 15:09 44.61480 37.88218 2277 ft 119 kts 339°
2026-05-06 15:10 44.62291 37.87878 2369 ft 119 kts 334°
2026-05-06 15:10 44.63038 37.87452 2533 ft 115 kts 337°
2026-05-06 15:10 44.63780 37.87001 2610 ft 119 kts 336°
2026-05-06 15:10 44.64563 37.86544 2643 ft 125 kts 335°
2026-05-06 15:11 44.65225 37.85747 2657 ft 125 kts 313°
2026-05-06 15:11 44.65779 37.84900 2652 ft 114 kts 311°
2026-05-06 15:11 44.66284 37.84099 2639 ft 104 kts 310°
2026-05-06 15:11 44.66808 37.83446 2642 ft 97 kts 323°
2026-05-06 15:12 44.67351 37.82921 2640 ft 96 kts 325°
2026-05-06 15:12 44.67943 37.82403 2694 ft 106 kts 328°
2026-05-06 15:12 44.68610 37.81844 2712 ft 117 kts 328°
2026-05-06 15:12 44.69343 37.81240 2708 ft 127 kts 329°
2026-05-06 15:13 44.70130 37.80596 2685 ft 134 kts 329°
2026-05-06 15:13 44.70951 37.79927 2673 ft 139 kts 329°
2026-05-06 15:13 44.71785 37.79249 2664 ft 142 kts 329°
2026-05-06 15:13 44.72659 37.78542 2663 ft 144 kts 329°
2026-05-06 15:14 44.73532 37.77834 2670 ft 146 kts 329°
2026-05-06 15:14 44.74407 37.77124 2674 ft 148 kts 329°
2026-05-06 15:14 44.75306 37.76396 2671 ft 149 kts 329°
2026-05-06 15:14 44.76206 37.75650 2671 ft 150 kts 327°
2026-05-06 15:15 44.77078 37.74833 2677 ft 152 kts 324°
2026-05-06 15:15 44.77938 37.73969 2671 ft 152 kts 322°
2026-05-06 15:15 44.78784 37.73066 2665 ft 152 kts 321°
2026-05-06 15:15 44.79619 37.72155 2663 ft 151 kts 321°
2026-05-06 15:16 44.80448 37.71246 2671 ft 151 kts 320°
2026-05-06 15:16 44.81274 37.70332 2661 ft 150 kts 320°
2026-05-06 15:16 44.82072 37.69422 2667 ft 149 kts 321°
2026-05-06 15:16 44.82893 37.68509 2680 ft 151 kts 322°
2026-05-06 15:17 44.83752 37.67633 2693 ft 154 kts 324°
2026-05-06 15:17 44.84642 37.66766 2674 ft 156 kts 324°
2026-05-06 15:17 44.85538 37.65914 2655 ft 155 kts 325°
2026-05-06 15:17 44.86424 37.65077 2658 ft 153 kts 325°
2026-05-06 15:18 44.87309 37.64244 2658 ft 152 kts 325°
2026-05-06 15:18 44.88196 37.63447 2653 ft 150 kts 327°
2026-05-06 15:18 44.89077 37.62693 2655 ft 149 kts 327°
2026-05-06 15:18 44.89967 37.61948 2674 ft 149 kts 328°
2026-05-06 15:19 44.90860 37.61206 2670 ft 149 kts 328°
2026-05-06 15:19 44.91754 37.60467 2676 ft 149 kts 328°
2026-05-06 15:19 44.92660 37.59719 2682 ft 151 kts 328°
2026-05-06 15:19 44.93587 37.58999 2673 ft 153 kts 333°
2026-05-06 15:20 44.94550 37.58379 2672 ft 154 kts 335°
2026-05-06 15:20 44.95532 37.57787 2661 ft 153 kts 335°
2026-05-06 15:20 44.96514 37.57214 2656 ft 152 kts 336°
2026-05-06 15:20 44.97385 37.56714 2671 ft 152 kts 336°
2026-05-06 15:21 44.98365 37.56153 2673 ft 153 kts 336°
2026-05-06 15:21 44.99356 37.55581 2676 ft 154 kts 336°
2026-05-06 15:21 45.00341 37.55014 2646 ft 152 kts 336°
2026-05-06 15:21 45.01312 37.54450 2658 ft 150 kts 336°
2026-05-06 15:22 45.02278 37.53890 2673 ft 150 kts 336°
2026-05-06 15:22 45.03241 37.53303 2675 ft 151 kts 334°
2026-05-06 15:22 45.04141 37.52721 2618 ft 135 kts 333°
2026-05-06 15:22 45.04962 37.52125 2484 ft 132 kts 328°
2026-05-06 15:23 45.05758 37.51410 2381 ft 136 kts 324°
2026-05-06 15:23 45.06526 37.50723 2380 ft 123 kts 326°
2026-05-06 15:23 45.07255 37.50193 2366 ft 115 kts 333°
2026-05-06 15:23 45.07967 37.49699 2278 ft 113 kts 327°
2026-05-06 15:24 45.08630 37.49096 2243 ft 107 kts 322°
2026-05-06 15:24 45.09204 37.48456 2170 ft 109 kts 316°
2026-05-06 15:24 45.09731 37.47710 2165 ft 103 kts 308°
2026-05-06 15:24 45.09964 37.46778 1966 ft 113 kts 252°
2026-05-06 15:25 45.09418 37.46046 1962 ft 108 kts 217°
2026-05-06 15:25 45.08759 37.45509 1913 ft 109 kts 215°
2026-05-06 15:25 45.08150 37.44929 1837 ft 102 kts 219°
2026-05-06 15:25 45.07619 37.44304 1767 ft 97 kts 226°
2026-05-06 15:26 45.07144 37.43670 1688 ft 90 kts 227°
2026-05-06 15:26 45.06717 37.43106 1559 ft 81 kts 225°
2026-05-06 15:26 45.06309 37.42569 1391 ft 77 kts 229°
2026-05-06 15:26 45.05881 37.42027 1430 ft 87 kts 225°
2026-05-06 15:27 45.05422 37.41429 1510 ft 91 kts 222°
2026-05-06 15:27 45.04926 37.40820 1366 ft 96 kts 224°
2026-05-06 15:27 45.04410 37.40212 1136 ft 98 kts 225°
2026-05-06 15:27 45.03952 37.39561 999 ft 87 kts 226°
2026-05-06 15:28 45.03529 37.38978 809 ft 85 kts 223°
2026-05-06 15:28 45.03073 37.38440 772 ft 84 kts 217°
2026-05-06 15:28 45.02625 37.37873 644 ft 86 kts 223°
2026-05-06 15:28 45.02191 37.37304 569 ft 85 kts 226°
2026-05-06 15:29 45.01754 37.36725 448 ft 87 kts 222°
2026-05-06 15:29 45.01323 37.36157 294 ft 82 kts 221°
2026-05-06 15:29 45.00893 37.35612 176 ft 81 kts 221°
2026-05-06 15:29 45.00536 37.35146 168 ft 59 kts 222°
2026-05-06 15:30 45.00281 37.34816 167 ft 39 kts 221°
2026-05-06 15:30 45.00168 37.34610 167 ft 17 kts 297°
2026-05-06 15:30 45.00214 37.34535 174 ft 0 kts 313°
2026-05-06 15:31 45.00250 37.34479 175 ft 17 kts 309°
2026-05-06 15:31 45.00300 37.34375 176 ft 7 kts 226°
2026-05-06 15:32 45.00110 37.34141 176 ft 11 kts 233°
2026-05-06 15:32 45.00137 37.34092 176 ft 3 kts 302°
2026-05-06 15:32 45.00146 37.34075 176 ft 0 kts 306°
2026-05-06 15:40 45.00146 37.34076 176 ft 0 kts 306°
2026-05-06 15:47 45.00145 37.34076 176 ft 0 kts 306°